Vertical_Velocity
-2 -1 -2 -1 -0 -1 2 4 5 -1 1 4 -1 1 3 4 2 0 0 1 1 -1 -3 -3 -3 -1 -4 -4 1 6 8 -10 0 -9 4 -7 13 11
-1 0 -1 -1 -1 -0 2 4 3 3 -0 1 1 2 1 2 2 1 0 0 1 -2 -2 -1 -1 -2 -2 -4 -3 -1 6 3 5 5 -2 -4 5 -1
-0 -0 -1 -1 -1 1 1 2 1 1 2 2 1 -0 -1 -1 1 0 -0 -0 1 0 -0 -1 -2 -2 -1 -3 -6 -4 5 1 7 9 8 5 5 -3
-0 -1 -0 0 0 1 2 2 1 1 -0 -1 -1 2 1 1 0 -1 -2 0 -0 1 0 0 -0 -2 -1 -2 -3 -4 -1 0 4 9 -5 -11 2 -4
-0 -1 -0 -1 -0 2 2 0 -0 -0 0 -0 -3 -3 -1 -3 -4 3 -1 -4 -0 -2 -1 0 -1 -1 -0 2 -1 -1 -4 -2 -1 10 -10 -2 2 -5
-0 -0 -0 -1 -1 0 0 -0 -0 -1 -1 -1 -0 -0 -1 -2 2 -3 -2 -1 -4 -2 -2 -2 2 -1 -0 -4 3 1 1 1 -2 -3 5 -6 -1 -2
-1 -1 -2 -2 -1 -1 -1 -1 -2 -1 -2 -2 -2 -1 -2 -2 -3 -4 -0 2 -0 -3 -4 -2 -1 3 -1 -0 1 -2 2 -0 2 1 1 -3 -1 1
-1 -1 -1 -0 -0 0 0 -1 -2 -3 -3 -4 -4 -4 -2 -2 -1 -1 -1 -2 -5 5 1 -5 -0 0 0 0 1 0 -2 1 0 0 3 -0 -2 -2
-0 -0 -1 -0 -0 0 -2 -2 -1 -0 -2 -2 -3 -4 -5 -4 -5 -6 -5 0 1 -1 -3 -2 -1 -1 0 1 -1 1 1 -2 1 -2 -2 2 2 1
-1 -1 -0 -2 -2 -2 -1 -1 -1 -2 -3 -6 -5 -4 -5 -5 -5 -3 -2 -8 2 -5 -4 -1 -1 -1 -0 -0 1 1 -1 3 -0 2 3 -2 1 1
-1 1 -2 -2 -2 -5 -3 -3 -4 -3 -3 -3 -5 -5 -6 -5 -2 -6 -9 -6 -7 -6 -5 -3 -4 0 -1 -1 1 -0 2 1 1 -0 2 -1 -1 2
1 -7 -2 -2 -4 -3 -2 -4 -4 -4 -5 -4 -3 -6 -7 -7 -6 -4 -2 -8 -5 -5 -4 -7 -2 -2 -1 -1 1 2 2 -0 -1 -1 -1 1 2 -5
1 -1 -0 -2 -2 -2 -3 -4 -3 -4 -4 -4 -5 -5 -7 -6 -9 -6 -5 -2 -4 -4 -1 -2 -3 -1 -0 -3 2 2 0 0 1 -2 -1 0 -0 0
1 1 -1 -1 -2 -2 -3 -3 -4 -4 -4 -5 -5 -5 -5 -3 -5 -2 -1 1 -3 -3 -2 -1 -1 -1 1 -1 -4 3 2 4 3 3 4 2 0 -1
0 1 -1 -1 -1 -2 -4 -2 -2 -5 -6 -5 -7 -7 -5 -4 -2 -3 0 0 2 -1 -4 0 1 1 1 1 -1 -4 -1 1 1 2 1 -0 -2 -0
1 0 -1 -1 -2 -2 -2 -1 -3 -3 -3 -3 -4 -5 -2 -4 -1 -1 -1 -1 0 1 -1 -2 -0 1 3 1 1 1 -2 -3 1 0 1 -1 1 6
0 0 -2 -2 -2 -3 -3 -2 0 -5 -4 -3 -2 -4 -1 -2 -1 0 -2 0 -1 1 -1 -5 0 0 -2 0 2 2 2 -1 -0 2 1 1 3 2
-0 -0 -1 -2 -2 -1 -2 -5 0 -4 -4 -2 -1 -3 -0 -1 -1 2 -2 -0 0 -0 1 -0 -5 -0 2 -2 -1 -1 1 1 1 1 -0 2 -1 -0
-1 -1 -2 -3 -2 1 -3 -1 -4 -3 -4 -1 -2 -2 -0 -2 -1 1 -1 -0 -0 -0 0 1 -2 -1 -1 1 -2 3 -3 -0 1 2 2 0 1 -2
0 -1 -1 -1 -2 -1 -4 -4 -4 -5 -3 -2 -2 -2 -0 -1 -2 -1 -0 -0 0 0 0 0 -1 0 -0 0 -2 0 3 -1 -3 0 3 3 1 3
-2 -1 -4 -2 -2 -3 -2 -5 -3 -2 -3 -1 -1 -2 -0 -1 -1 -0 -0 -0 -0 -0 0 -0 1 0 -0 -0 -1 1 -1 0 0 -1 -2 -2 1 3
-2 -0 -2 -2 -2 -3 -3 -2 -4 -0 -2 -0 -1 -2 -1 -1 -0 -1 -1 -0 -1 -1 0 -1 -0 -2 -0 2 -2 2 2 -3 -3 2 0 -1 -6 -3
-4 -2 2 -0 -3 -2 -4 -2 -0 -2 -1 -1 -1 -1 -0 -3 -0 -1 -2 -0 -0 -2 0 -1 -2 -2 -2 -1 -4 4 0 1 -2 -4 -1 5 -6 -2
Height
5558 5554 5550 5546 5544 5542 5541 5540 5539 5538 5539 5542 5544 5545 5548 5550 5552 5553 5555 5556 5559 5561 5563 5566 5570 5575 5581 5590 5598 5603 5607 5617 5627 5631 5638 5638 5652 5655
5552 5549 5545 5542 5540 5537 5536 5535 5536 5536 5536 5537 5538 5541 5542 5544 5545 5547 5548 5548 5550 5552 5554 5556 5559 5563 5569 5575 5581 5587 5594 5603 5610 5616 5618 5637 5636 5645
5546 5544 5542 5539 5536 5534 5533 5533 5534 5534 5534 5534 5535 5535 5536 5537 5539 5539 5540 5541 5542 5543 5545 5547 5549 5552 5557 5562 5567 5572 5579 5586 5593 5599 5607 5615 5622 5630
5542 5540 5538 5536 5534 5531 5530 5530 5531 5531 5531 5530 5530 5530 5530 5530 5530 5531 5531 5533 5534 5534 5535 5537 5539 5541 5545 5549 5554 5558 5563 5570 5576 5580 5589 5601 5607 5620
5538 5536 5534 5532 5530 5529 5528 5527 5527 5527 5526 5526 5525 5524 5524 5523 5523 5523 5523 5523 5524 5524 5525 5526 5527 5529 5533 5536 5540 5544 5549 5554 5563 5567 5576 5584 5593 5604
5534 5531 5529 5528 5526 5525 5523 5522 5521 5520 5520 5519 5518 5517 5516 5516 5515 5514 5513 5513 5513 5513 5513 5514 5515 5517 5520 5524 5528 5531 5535 5541 5548 5555 5561 5570 5578 5587
5529 5527 5525 5524 5522 5521 5519 5517 5515 5514 5512 5511 5509 5508 5506 5505 5504 5503 5502 5502 5501 5501 5501 5502 5503 5504 5506 5510 5514 5518 5522 5528 5534 5541 5547 5554 5562 5571
5524 5522 5521 5520 5518 5516 5514 5512 5510 5508 5505 5503 5501 5498 5495 5493 5492 5492 5490 5488 5487 5488 5488 5488 5489 5490 5492 5495 5499 5503 5508 5513 5519 5525 5532 5539 5547 5555
5518 5517 5515 5514 5512 5511 5508 5505 5502 5499 5496 5494 5491 5488 5485 5482 5479 5477 5475 5475 5473 5472 5473 5474 5475 5476 5477 5480 5483 5488 5492 5498 5503 5509 5517 5524 5530 5538
5512 5511 5510 5507 5505 5503 5501 5497 5494 5490 5487 5484 5480 5476 5472 5469 5466 5464 5461 5458 5457 5456 5455 5457 5459 5461 5462 5464 5468 5472 5476 5482 5487 5493 5501 5508 5514 5521
5506 5505 5503 5500 5498 5496 5492 5488 5485 5481 5477 5473 5468 5464 5460 5456 5452 5448 5445 5443 5439 5437 5437 5438 5439 5443 5446 5448 5451 5455 5460 5465 5472 5478 5484 5492 5499 5505
5499 5496 5494 5492 5489 5486 5482 5478 5474 5469 5464 5459 5455 5450 5446 5442 5438 5433 5430 5428 5425 5422 5420 5419 5421 5423 5426 5431 5434 5438 5443 5449 5455 5462 5469 5477 5483 5489
5491 5489 5486 5484 5480 5477 5472 5468 5463 5458 5453 5448 5443 5437 5432 5427 5422 5417 5414 5411 5409 5408 5408 5406 5406 5407 5409 5412 5417 5421 5425 5432 5439 5446 5452 5459 5466 5473
5482 5480 5478 5475 5471 5467 5462 5457 5452 5447 5442 5436 5430 5423 5416 5409 5403 5400 5397 5396 5395 5396 5395 5394 5394 5395 5397 5397 5400 5404 5409 5414 5421 5428 5435 5441 5448 5457
5473 5472 5469 5465 5462 5457 5451 5446 5440 5435 5429 5422 5414 5407 5400 5393 5388 5384 5383 5383 5383 5383 5383 5383 5383 5384 5385 5386 5387 5389 5393 5398 5404 5411 5417 5425 5432 5440
5465 5463 5460 5456 5451 5446 5441 5435 5429 5423 5416 5409 5400 5393 5387 5381 5377 5373 5371 5371 5371 5372 5372 5372 5372 5373 5374 5375 5376 5379 5380 5383 5389 5395 5401 5408 5416 5422
5457 5454 5450 5446 5441 5436 5430 5425 5418 5410 5403 5395 5387 5380 5376 5370 5367 5363 5361 5360 5360 5361 5362 5362 5363 5363 5363 5365 5365 5367 5370 5372 5375 5380 5385 5392 5399 5405
5448 5445 5441 5436 5431 5425 5419 5412 5406 5397 5390 5382 5375 5370 5365 5360 5355 5353 5351 5350 5350 5351 5352 5352 5352 5353 5354 5355 5356 5357 5358 5361 5364 5367 5370 5375 5381 5388
5439 5435 5430 5425 5419 5414 5407 5401 5393 5386 5378 5372 5366 5360 5355 5350 5346 5343 5341 5341 5340 5340 5340 5341 5341 5343 5344 5345 5346 5347 5348 5349 5352 5355 5357 5361 5365 5372
5429 5425 5420 5415 5409 5403 5396 5389 5383 5376 5370 5363 5358 5352 5348 5343 5339 5336 5334 5332 5330 5330 5329 5330 5330 5331 5332 5333 5334 5337 5337 5338 5340 5342 5345 5348 5352 5357
5419 5414 5409 5404 5398 5392 5385 5378 5373 5366 5360 5355 5349 5344 5340 5335 5332 5329 5327 5324 5322 5321 5320 5319 5319 5319 5320 5321 5322 5324 5324 5326 5328 5330 5332 5334 5338 5343
5409 5404 5398 5392 5386 5380 5374 5368 5362 5357 5351 5346 5340 5335 5331 5327 5324 5321 5318 5316 5314 5312 5310 5309 5308 5307 5307 5308 5308 5309 5310 5310 5312 5316 5318 5319 5322 5326
5398 5393 5388 5381 5375 5369 5363 5358 5352 5346 5340 5336 5331 5326 5322 5317 5314 5312 5308 5306 5304 5301 5299 5297 5296 5295 5294 5293 5293 5294 5293 5294 5295 5297 5301 5304 5305 5310